This is the latest recevied weather packets stored in our database for station/object KC4LZN. If no packets are shown the sender has not sent any weather packets the latest 1 day(s).
| Time | Temp. | Humidity | Pressure | Rain* | Wind** | Luminosity | Snow |
|---|---|---|---|---|---|---|---|
| 1778003826 | 27.78° C | 49% | 1017.1 hPa | 0 mm | 1.79 m/s, 63° | 563 W/m² | - |
| 1778003523 | 27.78° C | 52% | 1017.3 hPa | 0 mm | 0 m/s | 230 W/m² | - |
| 1778003219 | 27.78° C | 51% | 1017.4 hPa | 0 mm | 0 m/s | 175 W/m² | - |
| 1778002915 | 27.22° C | 51% | 1017.3 hPa | 0 mm | 0.89 m/s, 94° | 212 W/m² | - |
| 1778002612 | 27.22° C | 51% | 1017.2 hPa | 0 mm | 0 m/s | 190 W/m² | - |
| 1778002309 | 27.22° C | 52% | 1017.1 hPa | 0 mm | 0.89 m/s, 29° | 203 W/m² | - |
| 1778002007 | 27.22° C | 53% | 1017.2 hPa | 0 mm | 0.89 m/s, 56° | 261 W/m² | - |
| 1778001703 | 27.22° C | 53% | 1017.4 hPa | 0 mm | 1.34 m/s, 60° | 258 W/m² | - |
| 1778001403 | 27.22° C | 51% | 1017.3 hPa | 0 mm | 0.89 m/s, 166° | 306 W/m² | - |
| 1778001101 | 27.22° C | 51% | 1017.4 hPa | 0 mm | 0.89 m/s, 39° | 261 W/m² | - |
| 1778000798 | 28.33° C | 51% | 1017.6 hPa | 0 mm | 1.34 m/s, 150° | 258 W/m² | - |
| 1778000494 | 27.78° C | 49% | 1017.6 hPa | 0 mm | 0.89 m/s, 339° | 554 W/m² | - |
| 1778000189 | 27.22° C | 52% | 1017.5 hPa | 0 mm | 1.34 m/s, 54° | 315 W/m² | - |
| 1777999886 | 26.67° C | 53% | 1017.8 hPa | 0 mm | 0.89 m/s, 67° | 267 W/m² | - |
| 1777999581 | 27.78° C | 52% | 1017.7 hPa | 0 mm | 0.89 m/s, 66° | 245 W/m² | - |
| 1777999279 | 27.22° C | 52% | 1017.7 hPa | 0 mm | 0 m/s | 229 W/m² | - |
| 1777998977 | 27.22° C | 52% | 1017.8 hPa | 0 mm | 0.89 m/s, 185° | 235 W/m² | - |
| 1777998674 | 27.22° C | 51% | 1017.7 hPa | 0 mm | 0.45 m/s, 240° | 220 W/m² | - |
| 1777998372 | 27.22° C | 50% | 1017.7 hPa | 0 mm | 2.68 m/s, 45° | 401 W/m² | - |
| 1777998069 | 27.78° C | 51% | 1017.8 hPa | 0 mm | 3.58 m/s, 83° | 285 W/m² | - |
| 1777997766 | 27.78° C | 51% | 1017.7 hPa | 0 mm | 1.34 m/s, 49° | 351 W/m² | - |
| 1777997463 | 27.78° C | 52% | 1017.7 hPa | 0 mm | 0.89 m/s, 168° | 1046 W/m² | - |
| 1777997161 | 27.78° C | 50% | 1017.7 hPa | 0 mm | 2.24 m/s, 32° | 951 W/m² | - |
| 1777996858 | 27.78° C | 55% | 1017.7 hPa | 0 mm | 1.34 m/s, 51° | 929 W/m² | - |
| 1777996554 | 27.78° C | 53% | 1017.6 hPa | 0 mm | 2.68 m/s, 20° | 901 W/m² | - |
* Rain latest hour (hover to see other rain measurements)
** Current wind speed in m/s (hover to see current wind gust speed)